Location: Minneapolis
(44.9800°N, 93.2640°W)
Time: 03:36:51
(UTC-06:00)

Iridium 96 - Visible Passes

Search period start: 25 February 2018 00:00
Search period end: 07 March 2018 00:00
Orbit: 290 x 723 km, 86.4° (Epoch: 24 February)

Date Brightness Start Highest point End Pass type
(mag) Time Alt. Az. Time Alt. Az. Time Alt. Az.
25 Feb 7.6 03:46:42 17° NNE 03:46:42 17° NNE 03:47:52 10° NNE visible
25 Feb 7.4 05:21:31 11° NW 05:21:31 11° NW 05:21:48 10° NNW visible
26 Feb 7.8 03:29:03 15° NNE 03:29:03 15° NNE 03:30:00 10° NNE visible
26 Feb 7.4 05:03:52 13° NNW 05:03:52 13° NNW 05:04:30 10° NNW visible
27 Feb 8.1 03:11:21 13° NNE 03:11:21 13° NNE 03:12:02 10° NNE visible
27 Feb 7.4 04:46:11 14° NNW 04:46:11 14° NNW 04:47:01 10° NNW visible
28 Feb 8.3 02:53:38 11° NNE 02:53:38 11° NNE 02:53:58 10° NNE visible
28 Feb 7.4 04:28:27 15° NNW 04:28:27 15° NNW 04:29:24 10° NNW visible
01 Mar 7.5 04:10:41 16° N 04:10:41 16° N 04:11:41 10° N visible
02 Mar 7.6 03:52:52 16° N 03:52:52 16° N 03:53:51 10° N visible
03 Mar 7.7 03:35:02 15° N 03:35:02 15° N 03:35:56 10° N visible
04 Mar 7.9 03:17:09 15° N 03:17:09 15° N 03:17:57 10° N visible
05 Mar 8.1 02:59:14 13° NNE 02:59:14 13° NNE 02:59:52 10° NNE visible
06 Mar 8.2 02:41:16 12° NNE 02:41:16 12° NNE 02:41:41 10° NNE visible
06 Mar 7.8 04:16:05 11° NNW 04:16:05 11° NNW 04:16:16 10° NNW visible
